TimeCDT,TemperatureF,Dew PointF,Humidity,Sea Level PressureIn,VisibilityMPH,Wind Direction,Wind SpeedMPH,Gust SpeedMPH,PrecipitationIn,Events,Conditions,WindDirDegrees,DateUTC
12:55 AM,50.0,45.0,83,30.10,10.0,South,5.8,-,N/A,,Clear,170,2013-10-10 05:55:00
1:55 AM,48.9,44.1,83,30.11,10.0,SSE,4.6,-,N/A,,Clear,160,2013-10-10 06:55:00
2:55 AM,51.1,46.0,83,30.11,10.0,SE,3.5,-,N/A,,Clear,140,2013-10-10 07:55:00
3:55 AM,48.9,45.0,86,30.10,10.0,SSE,6.9,-,N/A,,Clear,150,2013-10-10 08:55:00
4:55 AM,46.9,45.0,93,30.11,10.0,Calm,Calm,-,N/A,,Clear,0,2013-10-10 09:55:00
5:55 AM,50.0,46.9,89,30.11,10.0,South,3.5,-,N/A,,Clear,170,2013-10-10 10:55:00
6:46 AM,46.4,44.6,93,30.11,2.5,SE,3.5,-,N/A,,Clear,140,2013-10-10 11:46:00
6:55 AM,43.0,42.1,97,30.12,6.0,SE,3.5,-,N/A,,Clear,130,2013-10-10 11:55:00
7:43 AM,44.6,42.8,93,30.11,2.5,ESE,4.6,-,N/A,,Clear,120,2013-10-10 12:43:00
7:52 AM,46.4,44.6,93,30.11,4.0,North,-9999.0,-,N/A,,Clear,0,2013-10-10 12:52:00
7:55 AM,48.0,46.0,93,30.12,4.0,North,-9999.0,-,N/A,,Clear,0,2013-10-10 12:55:00
8:55 AM,55.9,52.0,87,30.14,9.0,SSE,4.6,-,N/A,,Clear,160,2013-10-10 13:55:00
9:55 AM,63.0,54.0,72,30.13,10.0,South,5.8,-,N/A,,Clear,180,2013-10-10 14:55:00
10:55 AM,69.1,53.1,57,30.12,10.0,South,4.6,-,N/A,,Clear,170,2013-10-10 15:55:00
11:55 AM,72.0,50.0,46,30.11,10.0,SSE,6.9,-,N/A,,Clear,160,2013-10-10 16:55:00
12:55 PM,75.9,50.0,40,30.08,10.0,South,10.4,17.3,N/A,,Clear,180,2013-10-10 17:55:00
1:55 PM,78.1,48.9,36,30.05,10.0,South,9.2,-,N/A,,Clear,170,2013-10-10 18:55:00
2:55 PM,78.1,48.9,36,30.04,10.0,South,9.2,-,N/A,,Clear,170,2013-10-10 19:55:00
3:55 PM,77.0,48.9,37,30.02,10.0,South,9.2,17.3,N/A,,Clear,190,2013-10-10 20:55:00
4:55 PM,77.0,48.9,37,30.00,10.0,SSE,10.4,-,N/A,,Clear,150,2013-10-10 21:55:00
5:55 PM,73.0,48.9,42,29.99,10.0,SSE,10.4,-,N/A,,Clear,160,2013-10-10 22:55:00
6:55 PM,61.0,48.9,64,30.00,10.0,SE,5.8,-,N/A,,Clear,140,2013-10-10 23:55:00
7:55 PM,59.0,48.9,69,29.99,10.0,SE,3.5,-,N/A,,Clear,140,2013-10-11 00:55:00
8:55 PM,55.9,48.9,77,29.99,10.0,SE,3.5,-,N/A,,Clear,140,2013-10-11 01:55:00
9:55 PM,55.9,48.9,77,29.99,10.0,ESE,5.8,-,N/A,,Clear,120,2013-10-11 02:55:00
10:55 PM,54.0,48.9,83,29.98,10.0,SE,5.8,-,N/A,,Clear,140,2013-10-11 03:55:00
11:55 PM,52.0,48.9,89,29.97,10.0,SSE,8.1,-,N/A,,Clear,160,2013-10-11 04:55:00